Flag for Gaza Strip Weather past 2 weeks in Khan Yunis, Gaza Strip

Now
73 °F

Sunny.


Feels Like: 76 °F
Forecast: 61 / 68 °F
Wind: 12 mph from Northwest

Location: El Arish

Current Time: Apr 21, 2015 at 3:07:59 PM

Latest Report: Apr 21, 2015 at 2:00 PM


Visibility: 10 mi

Pressure: 29.92 "Hg

Humidity: 69%

Dew point: 63 °F

Location of Khan YunisLocation

Historic Weather in Khan Yunis — Graph

°F

Khan Yunis temperature yesterday

Maximum temperature yesterday: 93 °F (at 1:00 PM)
Minimum temperature yesterday: 54 °F (at 6:00 AM)
Average temperature yesterday: 76 °F

Past Weeks' High & Low Weather Summary

 TemperatureHumidityPressure
High93 °F (Apr 20, 1:00 PM)100% (Apr 6, 9:00 PM)30.30 "Hg (Apr 6, 9:00 PM)
Low50 °F (Apr 12, 5:00 AM)14% (Apr 9, 12:00 AM)29.62 "Hg (Apr 8, 8:00 PM)
Average63 °F75%30.02 "Hg
* Reported Apr 6 1:00 PM — Apr 21 1:00 PM, Khan Yunis, Weather by CustomWeather, © 2015

Note: Actual official high and low records may vary slightly from our data, if they occured in-between our weather recording intervals... More about our weather records

Advertising

Khan Yunis weather history for previous 24 hours

 ConditionsComfort  
Time TempWeatherWind HumidityBarometerVisibility
1:00 PM
Tue, Apr 21
75 °FSunny.8 mph65%29.92 "Hg10 mi
12:00 PM73 °FSunny.8 mph69%29.92 "Hg10 mi
10:00 AM70 °FPassing clouds.7 mph78%29.92 "HgN/A
9:00 AM68 °FPassing clouds.7 mph88%29.92 "HgN/A
8:00 AM66 °FSunny.6 mph100%29.89 "Hg10 mi
7:00 AM64 °FSunny.5 mph100%29.89 "Hg10 mi
5:00 AM64 °FClear.No wind78%29.83 "Hg10 mi
3:00 AM66 °FClear.2 mph73%29.83 "Hg10 mi
2:00 AM70 °FClear.No wind53%29.83 "Hg10 mi
1:00 AM70 °FClear.5 mph29%29.83 "Hg10 mi
12:00 AM73 °FClear.9 mph23%29.83 "Hg10 mi
11:00 PM
Mon, Apr 20
73 °FClear.9 mph25%29.83 "Hg10 mi
10:00 PM73 °FClear.9 mph27%29.86 "Hg10 mi
9:00 PM75 °FClear.5 mph34%29.86 "Hg10 mi
8:00 PM79 °FClear.No wind26%29.83 "Hg10 mi
7:00 PM86 °FSunny.No wind20%29.83 "Hg10 mi
6:00 PM90 °FSunny.3 mph18%29.83 "Hg10 mi
5:00 PM93 °FSunny.9 mph16%29.89 "Hg10 mi
3:00 PM93 °FSunny.9 mph16%29.89 "Hg10 mi
Weather by CustomWeather, © 2015

See weather overviewHow to use our weather pages